Regional Weather Roundup
Issued by NWS

Home | Current Version | Previous Version | Text Only | Print | Product List | Glossary On
Versions: 1 2 3 4 5 6 7 8 9 10 11 12 13 14 15 16 17 18 19 20 21 22 23 24 25 26 27 28 29 30 31 32 33 34 35 36 37 38 39 40 41 42 43 44 45 46 47 48 49 50
000
ASUS42 KFFC 211203
RWRGA
WEATHER ROUNDUP FOR GEORGIA
NATIONAL WEATHER SERVICE PEACHTREE CITY GA
800 AM EDT TUE OCT 21 2014

NOTE: "FAIR" INDICATES FEW OR NO CLOUDS BELOW 12,000 FEET WITH NO
SIGNIFICANT WEATHER AND/OR OBSTRUCTIONS TO VISIBILITY.

* = USE WITH CAUTION. THE STATIONS MARKED WITH AN ASTERISK MAY NOT
REPORT WEATHER SUCH AS PRECIPITATION, FOG, OR THUNDER AND ARE NOT
QUALITY CONTROLLED BY NWS.

THE REMARK "TC" DENOTES TEMPERATURE READING IN DEGREES CELSIUS.

GAZ001>058-211300-
NORTH GEORGIA

CITY           SKY/WX    TMP DP  RH WIND       PRES   REMARKS
ATLANTA        CLEAR     52  48  86 CALM      30.02R
6HR MIN TEMP:  52; 6HR MAX TEMP:  58;

ATHENS         CLEAR     49  47  93 CALM      30.00R
6HR MIN TEMP:  48; 6HR MAX TEMP:  54;

CHAMBLEE       CLEAR     49  47  93 CALM      30.02R FOG
6HR MIN TEMP:  47; 6HR MAX TEMP:  52;

PEACHTREE CITY CLEAR     45  44  97 CALM      30.03R FOG
6HR MIN TEMP:  45; 6HR MAX TEMP:  51;

ROME           FOG       45  45 100 CALM      30.03R VSB 1/4
6HR MIN TEMP:  44; 6HR MAX TEMP:  50;

WEST ATLANTA   CLEAR     51  47  86 CALM      30.02R
6HR MIN TEMP:  48; 6HR MAX TEMP:  52;

GAINESVILLE    CLEAR     51  49  92 W6        30.02S
6HR MIN TEMP:  51; 6HR MAX TEMP:  55;

CARTERSVILLE   CLEAR     45  44  97 CALM      30.04R
6HR MIN TEMP:  44; 6HR MAX TEMP:  49;



CITY           SKY/WX    TMP DP  RH WIND       PRES   REMARKS
DALTON*        FOG       45  45 100 CALM      30.03R VSB 3/4
LAWRENCEVILLE* CLEAR     54  45  71 CALM      30.00R
MARIETTA       CLEAR     49  48  97 W1        30.02R
KENNESAW*      CLEAR     48  45  87 W5        30.03F
$$

GAZ059>098-102>109-211300-
CENTRAL GEORGIA

CITY           SKY/WX    TMP DP  RH WIND       PRES   REMARKS
AUGUSTA-BUSH   CLEAR     44  44 100 CALM      29.98R
6HR MIN TEMP:  44; 6HR MAX TEMP:  51;

AUGUSTA-DANIEL CLEAR     57  50  77 W5        29.98R
6HR MIN TEMP:  56; 6HR MAX TEMP:  61;

COLUMBUS       CLEAR     52  49  89 CALM      30.02S
6HR MIN TEMP:  51; 6HR MAX TEMP:  56;

MACON          CLEAR     47  47 100 CALM      30.01R
6HR MIN TEMP:  46; 6HR MAX TEMP:  51;

ROBINS AFB     CLEAR     50  49  96 CALM      30.01R


CITY           SKY/WX    TMP DP  RH WIND       PRES   REMARKS
LAGRANGE*      FOG       49  49  99 CALM      30.04R VSB<1/4
SYLVANIA*      CLEAR     56  55  98 CALM      29.99S
MILLEDGEVILLE* CLEAR     50  50 100 CALM      30.00S FOG
$$

GAZ099>101-110>166-211300-
SOUTH GEORGIA

CITY           SKY/WX    TMP DP  RH WIND       PRES   REMARKS
SAVANNAH       PTCLDY    61  58  90 CALM      29.98R
6HR MIN TEMP:  59; 6HR MAX TEMP:  68; 6HR PCP:  0.32;

VALDOSTA       CLEAR     55  51  86 CALM      29.99R
6HR MIN TEMP:  55; 6HR MAX TEMP:  61; 6HR PCP:  0.01;

ALMA           FOG       53  52  96 CALM      29.98R VSB 1/2
6HR MIN TEMP:  53; 6HR MAX TEMP:  64;

ST SIMONS      CLEAR     62  62 100 N5        29.97R
6HR MIN TEMP:  61; 6HR MAX TEMP:  66;

FT STEWART     CLEAR     59  58  95 CALM      29.97R
ALBANY         CLEAR     54  51  90 CALM      30.02S
HUNTER AFB     CLEAR     60  60 100 NW2       29.96R
MOODY AFB      CLEAR     57  55  92 N5        29.99R
BRUNSWICK      CLOUDY    61  59  94 CALM      29.98R VSB<1/4


CITY           SKY/WX    TMP DP  RH WIND       PRES   REMARKS
BAINBRIDGE*    CLEAR     59  57  94 CALM      30.00S
MOULTRIE*      CLEAR     55  55 100 CALM      30.00R
VIDALIA*       CLEAR     55  54  94 CALM      29.99S
WAYCROSS*      CLEAR     62  60  95 CALM      29.98R
DOUGLAS*       CLEAR     59  55  88 CALM      30.00S
$$



USA.gov is the U.S. government's official web portal to all federal, state and local government web resources and services.